Flag for Switzerland Weather past 2 weeks in Pully, Vaud, Switzerland

Now
83 °F

Warm.


Feels Like: 86 °F
Forecast: 65 / 90 °F
Wind: 9 mph from North

Location: Aigle

Current Time: Jul 2, 2015 at 12:56:27 PM

Latest Report: Jul 2, 2015 at 12:00 PM


Visibility: N/A

Pressure: 30.08 "Hg

Humidity: 57%

Dew point: 67 °F

Location of PullyLocation

Historic Weather in Pully — Graph

°F

Pully temperature yesterday

Maximum temperature yesterday: 87 °F (at 4:00 PM)
Minimum temperature yesterday: 59 °F (at 7:00 AM)
Average temperature yesterday: 75 °F

Past Weeks' High & Low Weather Summary

 TemperatureHumidityPressure
High87 °F (Jul 1, 4:00 PM)97% (Jun 19, 12:00 AM)30.22 "Hg (Jun 19, 12:00 AM)
Low47 °F (Jun 24, 7:00 AM)38% (Jun 30, 8:00 PM)29.77 "Hg (Jun 22, 10:00 PM)
Average66 °F67%30.08 "Hg
* Reported Jun 17 12:00 Noon — Jul 2 11:00 AM, Pully, Weather by CustomWeather, © 2015

Note: Actual official high and low records may vary slightly from our data, if they occured in-between our weather recording intervals... More about our weather records

Advertising

Pully weather history for previous 24 hours

 ConditionsComfort  
Time TempWeatherWind HumidityBarometerVisibility
11:00 AM
Thu, Jul 2
83 °FSunny.2 mph55%30.09 "Hg16 mi
10:00 AM81 °FWarm.No wind58%30.10 "HgN/A
9:00 AM77 °FWarm.No wind66%30.12 "HgN/A
8:00 AM74 °FSunny.3 mph71%30.11 "Hg16 mi
7:00 AM67 °FMild.2 mph81%30.12 "HgN/A
6:00 AM63 °FMild.2 mph90%30.13 "HgN/A
5:00 AM65 °FClear.3 mph89%30.12 "Hg12 mi
4:00 AM64 °FMild.2 mph90%30.13 "HgN/A
3:00 AM66 °FMild.2 mph90%30.12 "HgN/A
2:00 AM68 °FMild.No wind90%30.11 "HgN/A
1:00 AM69 °FMild.No wind84%30.09 "HgN/A
12:00 AM72 °FMild.2 mph78%30.07 "HgN/A
10:00 PM
Wed, Jul 1
76 °FMild.3 mph67%30.03 "HgN/A
9:00 PM79 °FWarm.2 mph64%30.01 "HgN/A
8:00 PM84 °FPassing clouds.5 mph55%29.98 "Hg16 mi
7:00 PM86 °FWarm.5 mph50%29.96 "HgN/A
6:00 PM87 °FWarm.5 mph48%29.97 "HgN/A
5:00 PM87 °FWarm.9 mph47%29.97 "HgN/A
4:00 PM87 °FWarm.8 mph43%29.98 "HgN/A
3:00 PM86 °FWarm.9 mph44%29.99 "HgN/A
2:00 PM83 °FWarm.8 mph42%30.01 "HgN/A
1:00 PM81 °FWarm.10 mph43%30.03 "HgN/A
12:00 PM80 °FWarm.8 mph48%30.04 "HgN/A
Weather by CustomWeather, © 2015

See weather overviewHow to use our weather pages